| time (UTC) | temp F | wind direction | speed MPH | gust MPH | rain 1hr in | rain 24hr in | rain mn in | humidity % | barometer mb |
| 20260502180545 | 79 | 180 | 9.0 | 0.0 | 0.00 | 0.00 | 0.00 | 42 | 1012.0 |
| 20260502163537 | 74 | 164 | 4.0 | 4.0 | 0.00 | 0.00 | 0.00 | 50 | 1013.0 |
| 20260502162537 | 74 | 166 | 3.0 | 4.0 | 0.00 | 0.00 | 0.00 | 50 | 1014.0 |
| 20260502161536 | 74 | 166 | 3.0 | 4.0 | 0.00 | 0.00 | 0.00 | 50 | 1014.0 |
| 20260502160535 | 74 | 166 | 3.0 | 4.0 | 0.00 | 0.00 | 0.00 | 50 | 1014.0 |
| 20260502151532 | 70 | 180 | 9.0 | 0.0 | 0.00 | 0.00 | 0.00 | 56 | 1014.0 |
| 20260502150532 | 70 | 180 | 9.0 | 0.0 | 0.00 | 0.00 | 0.00 | 56 | 1014.0 |
| 20260502130524 | 59 | 0 | 0.0 | 0.0 | 0.00 | 0.00 | 0.00 | 94 | 1014.0 |
| 20260502123522 | 55 | 0 | 0.0 | 0.0 | 0.00 | 0.00 | 0.00 | 96 | 1014.0 |
| 20260502122521 | 56 | 0 | 0.0 | 0.0 | 0.00 | 0.00 | 0.00 | 96 | 1014.0 |
| 20260502121521 | 57 | 0 | 0.0 | 0.0 | 0.00 | 0.00 | 0.00 | 96 | 1014.0 |
| 20260502120520 | 58 | 0 | 0.0 | 0.0 | 0.00 | 0.00 | 0.00 | 97 | 1014.0 |
| 20260502115519 | 54 | 237 | 3.0 | 3.0 | 0.00 | 0.00 | 0.00 | 98 | 1015.0 |
| 20260502114519 | 54 | 237 | 3.0 | 3.0 | 0.00 | 0.00 | 0.00 | 97 | 1015.0 |
| 20260502113518 | 55 | 237 | 3.0 | 3.0 | 0.00 | 0.00 | 0.00 | 96 | 1015.0 |
| 20260502112518 | 54 | 200 | 5.0 | 0.0 | 0.00 | 0.00 | 0.00 | 93 | 1014.0 |
| 20260502111517 | 56 | 200 | 5.0 | 0.0 | 0.00 | 0.00 | 0.00 | 92 | 1014.0 |
| 20260502110516 | 56 | 200 | 5.0 | 0.0 | 0.00 | 0.00 | 0.00 | 92 | 1014.0 |
| 20260502105516 | 57 | 200 | 6.0 | 0.0 | 0.00 | 0.00 | 0.00 | 91 | 1014.0 |
| 20260502104515 | 57 | 200 | 6.0 | 0.0 | 0.00 | 0.00 | 0.00 | 91 | 1014.0 |
| 20260502103514 | 58 | 200 | 6.0 | 0.0 | 0.00 | 0.00 | 0.00 | 92 | 1014.0 |
| 20260502102514 | 54 | 180 | 5.0 | 0.0 | 0.00 | 0.00 | 0.00 | 93 | 1013.0 |
| 20260502101513 | 56 | 180 | 5.0 | 0.0 | 0.00 | 0.00 | 0.00 | 92 | 1013.0 |
| 20260502100513 | 57 | 180 | 6.0 | 0.0 | 0.00 | 0.00 | 0.00 | 91 | 1013.0 |
| 20260502091509 | 58 | 180 | 6.0 | 0.0 | 0.00 | 0.00 | 0.00 | 93 | 1013.0 |
| 20260502090509 | 54 | 225 | 3.0 | 4.0 | 0.00 | 0.00 | 0.00 | 97 | 1013.0 |
| 20260502071502 | 58 | 180 | 13.0 | 0.0 | 0.00 | 0.00 | 0.00 | 92 | 1014.0 |
| 20260502070501 | 60 | 180 | 13.0 | 0.0 | 0.00 | 0.00 | 0.00 | 92 | 1014.0 |
| 20260502065501 | 56 | 180 | 13.0 | 0.0 | 0.00 | 0.00 | 0.00 | 94 | 1014.0 |
| 20260502064500 | 58 | 180 | 13.0 | 0.0 | 0.00 | 0.00 | 0.00 | 93 | 1014.0 |
| 20260502063459 | 60 | 180 | 13.0 | 0.0 | 0.00 | 0.00 | 0.00 | 93 | 1014.0 |
| 20260502062459 | 56 | 180 | 13.0 | 0.0 | 0.00 | 0.00 | 0.00 | 96 | 1014.0 |
| 20260502061458 | 58 | 180 | 13.0 | 0.0 | 0.00 | 0.00 | 0.00 | 96 | 1014.0 |
| 20260502060457 | 60 | 180 | 13.0 | 0.0 | 0.00 | 0.00 | 0.00 | 94 | 1014.0 |
| 20260502055457 | 57 | 221 | 4.0 | 6.0 | 0.00 | 0.00 | 0.00 | 10 | 1014.0 |
| 20260502054456 | 57 | 221 | 4.0 | 6.0 | 0.00 | 0.00 | 0.00 | 10 | 1014.0 |
| 20260502053455 | 57 | 221 | 4.0 | 6.0 | 0.00 | 0.00 | 0.00 | 10 | 1014.0 |
| 20260502052455 | 58 | 216 | 4.0 | 6.0 | 0.00 | 0.00 | 0.00 | 10 | 1014.0 |
| 20260502051454 | 58 | 216 | 4.0 | 6.0 | 0.00 | 0.00 | 0.00 | 10 | 1014.0 |
| 20260502050453 | 58 | 216 | 4.0 | 6.0 | 0.00 | 0.00 | 0.00 | 10 | 1014.0 |
| 20260502045453 | 58 | 216 | 4.0 | 6.0 | 0.00 | 0.00 | 0.00 | 10 | 1014.0 |
| 20260502044452 | 58 | 216 | 4.0 | 6.0 | 0.00 | 0.00 | 0.00 | 10 | 1014.0 |
| 20260502043451 | 58 | 216 | 4.0 | 6.0 | 0.00 | 0.00 | 0.00 | 10 | 1014.0 |
| 20260502042451 | 58 | 217 | 4.0 | 7.0 | 0.00 | 0.00 | 0.00 | 10 | 1014.0 |
| 20260502041450 | 58 | 217 | 4.0 | 7.0 | 0.00 | 0.00 | 0.00 | 10 | 1014.0 |
| 20260502040449 | 58 | 217 | 4.0 | 7.0 | 0.00 | 0.00 | 0.00 | 10 | 1014.0 |
| 20260502035449 | 57 | 217 | 4.0 | 7.0 | 0.00 | 0.00 | 0.00 | 97 | 1014.0 |
| 20260502034448 | 57 | 217 | 4.0 | 7.0 | 0.00 | 0.00 | 0.00 | 97 | 1014.0 |
| 20260502033448 | 57 | 180 | 15.0 | 0.0 | 0.00 | 0.00 | 0.00 | 95 | 1014.0 |
| 20260502032447 | 59 | 180 | 15.0 | 0.0 | 0.00 | 0.00 | 0.00 | 94 | 1014.0 |
| 20260502031446 | 59 | 180 | 15.0 | 0.0 | 0.00 | 0.00 | 0.00 | 94 | 1014.0 |
| 20260502030446 | 61 | 180 | 15.0 | 0.0 | 0.00 | 0.00 | 0.00 | 93 | 1014.0 |
| 20260502025445 | 63 | 180 | 16.0 | 0.0 | 0.00 | 0.00 | 0.00 | 91 | 1014.0 |
| 20260502024444 | 57 | 213 | 5.0 | 8.0 | 0.00 | 0.00 | 0.00 | 10 | 1014.0 |
| 20260502023444 | 59 | 213 | 5.0 | 8.0 | 0.00 | 0.00 | 0.00 | 10 | 1014.0 |
| 20260502022443 | 60 | 213 | 5.0 | 9.0 | 0.00 | 0.00 | 0.00 | 10 | 1013.0 |
| 20260502021442 | 58 | 213 | 5.0 | 9.0 | 0.00 | 0.00 | 0.00 | 10 | 1013.0 |
| 20260502020442 | 58 | 213 | 5.0 | 8.0 | 0.00 | 0.00 | 0.00 | 10 | 1013.0 |
| 20260502015441 | 60 | 213 | 5.0 | 8.0 | 0.00 | 0.00 | 0.00 | 10 | 1013.0 |
| 20260502014440 | 61 | 213 | 5.0 | 9.0 | 0.00 | 0.00 | 0.00 | 10 | 1013.0 |
| 20260502013440 | 59 | 213 | 5.0 | 9.0 | 0.00 | 0.00 | 0.00 | 10 | 1013.0 |
| 20260502012439 | 60 | 209 | 5.0 | 8.0 | 0.00 | 0.00 | 0.00 | 10 | 1012.0 |
| 20260502011438 | 61 | 209 | 5.0 | 9.0 | 0.00 | 0.00 | 0.00 | 10 | 1012.0 |
| 20260502010438 | 60 | 209 | 5.0 | 9.0 | 0.00 | 0.00 | 0.00 | 10 | 1012.0 |
| 20260502005437 | 59 | 209 | 5.0 | 8.0 | 0.00 | 0.00 | 0.00 | 10 | 1012.0 |
| 20260502004436 | 61 | 209 | 5.0 | 8.0 | 0.00 | 0.00 | 0.00 | 10 | 1012.0 |
| 20260502003436 | 62 | 209 | 5.0 | 9.0 | 0.00 | 0.00 | 0.00 | 10 | 1012.0 |
| 20260502002435 | 63 | 203 | 6.0 | 8.0 | 0.00 | 0.00 | 0.00 | 10 | 1011.0 |
| 20260502001434 | 64 | 203 | 6.0 | 8.0 | 0.00 | 0.00 | 0.00 | 10 | 1011.0 |
| 20260502000434 | 64 | 203 | 6.0 | 8.0 | 0.00 | 0.00 | 0.00 | 10 | 1011.0 |
| 20260501235433 | 64 | 203 | 6.0 | 8.0 | 0.00 | 0.00 | 0.00 | 90 | 1011.0 |
| 20260501234433 | 64 | 220 | 20.0 | 0.0 | 0.00 | 0.00 | 0.00 | 81 | 1011.0 |
| 20260501233432 | 66 | 220 | 20.0 | 0.0 | 0.00 | 0.00 | 0.00 | 79 | 1011.0 |
| 20260501232431 | 68 | 220 | 20.0 | 0.0 | 0.00 | 0.00 | 0.00 | 76 | 1010.0 |
| 20260501231431 | 70 | 220 | 20.0 | 0.0 | 0.00 | 0.00 | 0.00 | 72 | 1010.0 |
| 20260501230430 | 70 | 220 | 20.0 | 0.0 | 0.00 | 0.00 | 0.00 | 72 | 1010.0 |
| 20260501225430 | 72 | 220 | 20.0 | 0.0 | 0.00 | 0.00 | 0.00 | 69 | 1010.0 |
| 20260501224429 | 69 | 220 | 20.0 | 0.0 | 0.00 | 0.00 | 0.00 | 71 | 1010.0 |
| 20260501223428 | 70 | 220 | 20.0 | 0.0 | 0.00 | 0.00 | 0.00 | 73 | 1010.0 |
| 20260501222428 | 71 | 220 | 20.0 | 0.0 | 0.00 | 0.00 | 0.00 | 75 | 1009.0 |
| 20260501221427 | 72 | 220 | 20.0 | 0.0 | 0.00 | 0.00 | 0.00 | 80 | 1009.0 |
| 20260501220426 | 70 | 202 | 8.0 | 7.0 | 0.00 | 0.00 | 0.00 | 86 | 1009.0 |
| 20260501215426 | 70 | 200 | 18.0 | 0.0 | 0.00 | 0.00 | 0.00 | 75 | 1009.0 |
| 20260501214425 | 70 | 200 | 18.0 | 0.0 | 0.00 | 0.00 | 0.00 | 75 | 1009.0 |
| 20260501213425 | 72 | 200 | 18.0 | 0.0 | 0.00 | 0.00 | 0.00 | 71 | 1009.0 |
| 20260501212424 | 74 | 200 | 18.0 | 0.0 | 0.00 | 0.00 | 0.00 | 67 | 1009.0 |
| 20260501211423 | 76 | 200 | 18.0 | 0.0 | 0.00 | 0.00 | 0.00 | 64 | 1009.0 |
| 20260501210423 | 71 | 196 | 10.0 | 7.0 | 0.00 | 0.00 | 0.00 | 10 | 1009.0 |
| 20260501205422 | 71 | 196 | 10.0 | 7.0 | 0.00 | 0.00 | 0.00 | 10 | 1009.0 |
| 20260501204421 | 71 | 196 | 10.0 | 7.0 | 0.00 | 0.00 | 0.00 | 10 | 1009.0 |
| 20260501203421 | 71 | 196 | 10.0 | 7.0 | 0.00 | 0.00 | 0.00 | 10 | 1009.0 |
| 20260501202420 | 71 | 196 | 10.0 | 7.0 | 0.00 | 0.00 | 0.00 | 10 | 1010.0 |
| 20260501201419 | 72 | 196 | 10.0 | 7.0 | 0.00 | 0.00 | 0.00 | 79 | 1010.0 |
| 20260501200419 | 73 | 210 | 11.0 | 0.0 | 0.00 | 0.00 | 0.00 | 61 | 1010.0 |
| 20260501195418 | 75 | 210 | 11.0 | 0.0 | 0.00 | 0.00 | 0.00 | 57 | 1010.0 |
| 20260501194418 | 73 | 210 | 11.0 | 0.0 | 0.00 | 0.00 | 0.00 | 57 | 1010.0 |
| 20260501193417 | 73 | 210 | 11.0 | 0.0 | 0.00 | 0.00 | 0.00 | 57 | 1010.0 |
| 20260501192416 | 74 | 210 | 11.0 | 0.0 | 0.00 | 0.00 | 0.00 | 58 | 1011.0 |
| 20260501191416 | 75 | 210 | 11.0 | 0.0 | 0.00 | 0.00 | 0.00 | 57 | 1011.0 |
| 20260501190415 | 73 | 190 | 8.0 | 0.0 | 0.00 | 0.00 | 0.00 | 61 | 1011.0 |
| 20260501185414 | 75 | 190 | 9.0 | 0.0 | 0.00 | 0.00 | 0.00 | 57 | 1011.0 |
| 20260501184414 | 73 | 190 | 9.0 | 0.0 | 0.00 | 0.00 | 0.00 | 57 | 1011.0 |
| 20260501183413 | 74 | 190 | 9.0 | 0.0 | 0.00 | 0.00 | 0.00 | 58 | 1011.0 |
| 20260501182413 | 75 | 190 | 9.0 | 0.0 | 0.00 | 0.00 | 0.00 | 57 | 1012.0 |
| 20260501181412 | 73 | 190 | 11.0 | 0.0 | 0.00 | 0.00 | 0.00 | 58 | 1012.0 |